THOR ABLESTAR DEB, 956

Orbit data source: Space-Track

THOR ABLESTAR DEB, 956 is space debris in LEO originally from a launch on Sun, 13 Dec 1964 UTC launched from the Air Force Western Test Range (AFWTR). Debris objects in space refer to the collection of defunct objects orbiting the Earth. Examples of debris include non-operational satellites, rocket bodies, and fragments generated from explosions, collisions, or faulty payload assembly.

Loading next visibility...
Identifier
956, 1964-083B
Orbit
LEO
Country
Flag of USUS
Related business
Manufacturer
Unknown
Mission
Spacecraft
Bus & Motor
Unknown
Mass
Unknown
Launch date (UTC)
1964-12-13 (61 years ago)
Launch vehicle
Unknown
Launch site
Air Force Western Test Range (AFWTR)
Object type
Payload
Rocket body
Debris
Shape & HBR
Unknown
Radar Cross Section
Small (<0.1 m²)

Expand to show TLE details & history
Last TLE update: 10 hours ago

TLE from 10 hours ago
0 THOR ABLESTAR DEB
1 00956U 64083B   25242.75934229  .00000332  00000-0  38225-3 0  9998
2 00956  89.9373 170.9647 0023230 159.8093 266.1889 13.67360459 16438
Epoch: 2025-08-30T18:13Z
TLE epoch observation values (Epoch: 2025-08-30T18:13:27.173Z)
Latitude
65.81332°
Longitude
-81.44867°
Altitude
1,021.705 km
Speed
7.346 km/s
True Right ascension
11h 24m 24s
True Declination
65° 41' 21"
Sunlit
Object was in daylight at epoch
Visualization orbit readout
Latitude
Unknown
Longitude
Unknown
Altitude
Unknown
Speed
Unknown
Apparent Right ascension
Unknown
Apparent Declination
Unknown
Sunlit
N/A
Visualization observer readout
Local Sidereal Time
20:15:25
Azimuth
Unknown
Elevation
Unknown
Doppler factor
Unknown
Orbital elements
Apogee altitude
1,023.241 km
Perigee altitude
988.933 km
Semi-major axis
7,384.224 km
Eccentricity
0.00232
Inclination
89.9373°
RAAN
170.9647°
Arg. of periapsis
159.8093°
True anomaly
265.92334°
Mean anomaly
266.1889°
Eccentric anomaly
266.05612°
Mean motion
3.42047 °/min
Orbital period
105.25 mins
BSTAR
0.00038225
Loading maneuver chart data...
Computing Atmospheric mass density...

Documentation

Showing up to 5 results
|